Location: Bu�n Treun
(12.1333°N, 108.3167°E)
Time: 00:17:31
(UTC+00:00)

Okean 2 Rocket - Pass Details

Date: 13 July 2020
Orbit: 617 x 641 km, 82.5° (Epoch: 03 August)

Event Time Altitude Azimuth Distance (km) Brightness Sun altitude
Exits shadow 21:17:02 25° 280° (W) 1,252 4.2 -16.9°
Drops below altitude 10° 21:20:29 10° 332° (NNW) 1,974 5.6 -16.1°
Sets 21:23:01 0° 345° (NNW) 2,879 6.6 -15.6°
